Flag for Poland

Past Weather in Szczecin, Poland — Yesterday and Last 2 Weeks

Currently: 34 °F. Mostly cloudy. (Weather station: Szczecin Airport, Poland). See more current weather

Past Weather in Szczecin — Graph

°F

Szczecin Temperature Yesterday

Maximum temperature yesterday: 34 °F (at 11:00 am)
Minimum temperature yesterday: 32 °F (at 12:00 am)
Average temperature yesterday: 33 °F

High & Low Weather Summary for the Past Weeks

 TemperatureHumidityPressure
High54 °F (Jan 21, 2:00 pm)100% (Jan 12, 5:00 am)30.24 "Hg (Jan 12, 5:00 am)
Low9 °F (Jan 18, 1:00 am)47% (Jan 21, 2:00 pm)29.15 "Hg (Jan 22, 7:30 am)
Average32 °F89%29.71 "Hg
* Reported Jan 11 7:00 pm — Jan 26 7:00 pm, Szczecin. Weather by CustomWeather, © 2021

Note: Actual official high and low records may vary slightly from our data, if they occured in-between our weather recording intervals... More about our weather records

Szczecin Weather History for the Previous 24 Hours

Scroll right to see more
 ConditionsComfort  
Time TempWeatherWind HumidityBarometerVisibility
7:00 pm
Tue, Jan 26
34 °FMostly cloudy.9 mph93%29.83 "Hg4 mi
6:30 pm34 °FPartly cloudy.9 mph93%29.83 "Hg5 mi
6:00 pm34 °FPartly cloudy.8 mph93%29.83 "Hg5 mi
5:30 pm34 °FPassing clouds.8 mph93%29.83 "HgN/A
5:00 pm34 °FPassing clouds.7 mph87%29.83 "HgN/A
4:30 pm34 °FPartly sunny.7 mph87%29.83 "HgN/A
4:00 pm34 °FBroken clouds.7 mph87%29.80 "HgN/A
3:30 pm34 °FMore clouds than sun.6 mph87%29.80 "HgN/A
3:00 pm34 °FPartly sunny.9 mph87%29.80 "HgN/A
2:30 pm34 °FPartly sunny.10 mph87%29.80 "HgN/A
2:00 pm34 °FFog.6 mph93%29.80 "Hg2 mi
1:30 pm34 °FBroken clouds.7 mph93%29.80 "Hg5 mi
1:00 pm34 °FMore clouds than sun.7 mph93%29.80 "Hg5 mi
12:30 pm34 °FMore clouds than sun.8 mph93%29.80 "Hg4 mi
12:00 pm34 °FLight snow. Low clouds.10 mph93%29.80 "Hg4 mi
11:30 am34 °FLow clouds.7 mph93%29.80 "Hg4 mi
11:00 am32 °FIce fog.8 mph93%29.80 "Hg2 mi
10:30 am32 °FIce fog.9 mph93%29.77 "Hg2 mi
10:00 am32 °FIce fog.7 mph93%29.77 "Hg2 mi
9:30 am32 °FMore clouds than sun.7 mph93%29.77 "Hg4 mi
9:00 am32 °FPartly sunny.6 mph93%29.77 "Hg5 mi
8:30 am32 °FMore clouds than sun.7 mph93%29.77 "HgN/A
8:00 am32 °FCloudy.9 mph93%29.74 "HgN/A
7:30 am32 °FPassing clouds.9 mph93%29.74 "HgN/A
7:00 am32 °FPartly cloudy.8 mph93%29.74 "Hg6 mi
6:30 am32 °FPartly cloudy.9 mph93%29.74 "Hg4 mi
6:00 am32 °FIce fog.6 mph100%29.74 "Hg2 mi
5:30 am32 °FIce fog.7 mph100%29.74 "Hg2 mi
5:00 am32 °FIce fog.5 mph100%29.74 "Hg2 mi
4:30 am32 °FIce fog.7 mph100%29.71 "Hg1 mi
4:00 am32 °FIce fog.6 mph93%29.71 "Hg2 mi
3:30 am32 °FIce fog.7 mph93%29.71 "Hg3 mi
3:00 am32 °FIce fog.6 mph93%29.71 "Hg2 mi
2:30 am32 °FIce fog.6 mph93%29.71 "Hg3 mi
2:00 am32 °FIce fog.7 mph93%29.71 "Hg3 mi
1:30 am32 °FMostly cloudy.6 mph93%29.71 "HgN/A
1:00 am34 °FMostly cloudy.6 mph93%29.71 "Hg5 mi
12:30 am34 °FFog.9 mph93%29.71 "Hg3 mi
12:00 am34 °FOvercast.7 mph93%29.71 "Hg4 mi
11:30 pm
Mon, Jan 25
34 °FPartly cloudy.7 mph93%29.71 "Hg4 mi
11:00 pm34 °FFog.5 mph93%29.68 "Hg2 mi
10:30 pm34 °FFog.5 mph93%29.68 "Hg2 mi
10:00 pm34 °FFog.6 mph93%29.68 "Hg2 mi
9:30 pm34 °FFog.6 mph93%29.68 "Hg3 mi
9:00 pm34 °FOvercast.5 mph93%29.68 "Hg4 mi
8:30 pm34 °FOvercast.3 mph93%29.65 "Hg4 mi
8:00 pm32 °FPartly cloudy.3 mph100%29.65 "Hg5 mi
7:30 pm34 °FPartly cloudy.3 mph93%29.65 "Hg6 mi
7:00 pm32 °FPartly cloudy.2 mph100%29.65 "Hg5 mi
Weather by CustomWeather, © 2021

See weather overview